COSMOS 1275 DEB

Satellite information

Favourite Embed

Satellite Type and Status

DEBRISIN ORBIT

Key statistics

Satellite COSMOS 1275 DEB at a glance.

Uptime

16166

Days in orbit

Revolutions

≈ 14.0

Per day

Orbit

LEO

Low Earth Orbit

Inclination

83.0

Latest

Satellite identification and parameters

Extended collection of information and parameters for COSMOS 1275 DEB.

Object identification

Identified? True

Debris? True

Object name: COSMOS 1275 DEB

International designator: 1981-053EH

Object number (NORAD): 12962

Object ID (CCSDS): 12962

Country: COMMONWEALTH OF INDEPENDENT STATES (CIS)

Current information (Y/N): Y

RCS size: SMALL

Orbital parameters

Period: 102.693 minutes

Inclination: 82.9609 deg

SMA: 7264.211 km

Apoapsis: 904.357 km

Periapsis: 867.794 km

RAAN: 230.9831 deg

Eccentricy: 0.00251665

Argument of periapsis: 221.8518 deg

Mean anomaly: 138.073 deg

Mean motion: 14.02232822 rev/day

Mean motion (dot): 0.00001793 rev/day2

B* drag term: 0.0011581134 1/REarth

Two-line elements (TLE)

Creation date: Sept. 7, 2025, 3:09 a.m.

Reference frame: TEME

Reference center: EARTH

Epoch: Sept. 6, 2025, 10:56 p.m. UTC

TLE line 0: 0 COSMOS 1275 DEB

TLE line 1: 1 12962U 81053EH 25249.95614692 .00001793 00000-0 11581-2 0 9999

TLE line 2: 2 12962 82.9609 230.9831 0025167 221.8518 138.0730 14.02232822220800

Live tracking on map

Real-time ground track for satellite COSMOS 1275 DEB.

In-orbit conjunctions

A list of the most updated potential collisions computed for object COSMOS 1275 DEB.

Target Orbit TCA Probability of collision Miss distance Type
CZ-4 DEB SSO 2025-05-07 08:00:45 0.0001062836 152.0 (m) DEBRIS
DELTA 1 DEB SSO 2024-11-12 17:43:05 0.0002373085 539.0 (m) DEBRIS

Associated space launch

Navigation satellite providing location information for the Tsiklon-B navigation system

COSMOS 1275 DEB was lifted into orbit during the mission ‘Kosmos-3M | Parus 27’, on board a Kosmos-3M space rocket.

The launch took place on June 4, 1981, 3:41 p.m. from 132/2.

For more information about the launch, click the button.

Launch to space Kosmos-3M | Parus 27
Kosmos-3M | Parus 27

Agency: N/A

Status: Launch Successful

Launch date: June 4, 1981, 3:41 p.m. UTC

Rocket: Kosmos-3M

Launch pad: 132/2

Location: Plesetsk Cosmodrome, Russian Federation

...

Latest news about this satellite

There are no fresh news available about this satellite. Check back as we update our databases every day.


Newsletter sign-up

Weekly statistics, charts and insights to help you stay on top of the space industry.